Location: Unspecified
(0.0000°N, 0.0000°E)
Time: 07:05:37
(UTC+01:00)

SWIFT - Visible Passes

Search period start: 20 November 2017 00:00
Search period end: 30 November 2017 00:00
Orbit: 547 x 562 km, 20.6° (Epoch: 18 November)

Date Brightness Start Highest point End Pass type
(mag) Time Alt. Az. Time Alt. Az. Time Alt. Az.
20 Nov 4.9 04:23:16 18° E 04:23:16 18° E 04:24:35 10° E visible
20 Nov 2.6 05:58:58 13° W 06:02:34 48° NNW 06:06:37 10° NE visible
20 Nov 5.1 19:39:47 10° SW 19:41:56 13° SSW 19:44:04 10° SSE visible
21 Nov 5.3 04:18:47 13° E 04:18:47 13° E 04:19:17 10° E visible
21 Nov 3.1 05:54:30 18° WNW 05:57:05 34° NNW 06:00:55 10° NE visible
21 Nov 5.3 19:35:47 10° SSW 19:36:33 10° SSW 19:37:19 10° S visible
22 Nov 3.5 05:50:00 20° NW 05:51:37 25° NNW 05:55:07 10° NE visible
23 Nov 3.8 05:45:24 18° NW 05:46:10 19° NNW 05:49:12 10° NNE visible
24 Nov 4.2 05:40:45 15° NNW 05:40:45 15° NNW 05:43:07 10° NNE visible
25 Nov 4.6 05:36:00 11° N 05:36:00 11° N 05:36:42 10° N visible
